Retour au catalogue

STARLINK-4083

ActifCommunicationsVLEO
NORAD 52832·PAYLOAD·🇺🇸 United States

Lancé Jun 17, 2022 depuis Cape Canaveral Space Force Station

Loading…

Prochains Passages (prochaines 24 heures)

TLE

FraisSource: CelesTrak SupGP

Époque: Sep 14, 2026, 21:52 UTC

1 52832C 22062C   26257.91159722  .00039551  00000+0  12719-2 0  2571
2 52832  53.1570 254.8229 0001224  97.3706  89.6290 15.31681611    14

Suivez STARLINK-4083 en temps réel avec AllMySat

Download on the App Store